TimeEST,TemperatureF,Dew PointF,Humidity,Sea Level PressureIn,VisibilityMPH,Wind Direction,Wind SpeedMPH,Gust SpeedMPH,PrecipitationIn,Events,Conditions,WindDirDegrees,DateUTC
12:54 AM,28.0,15.1,58,29.67,10.0,WNW,25.3,33.4,N/A,,Mostly Cloudy,290,2012-12-23 05:54:00
1:54 AM,28.0,15.1,58,29.68,10.0,WNW,23.0,33.4,N/A,,Clear,290,2012-12-23 06:54:00
2:54 AM,27.0,15.1,61,29.72,10.0,West,15.0,27.6,N/A,,Clear,280,2012-12-23 07:54:00
3:54 AM,28.0,14.0,56,29.74,10.0,West,17.3,27.6,N/A,,Clear,280,2012-12-23 08:54:00
4:54 AM,28.0,14.0,56,29.75,10.0,West,15.0,26.5,N/A,,Clear,280,2012-12-23 09:54:00
5:54 AM,27.0,14.0,58,29.78,10.0,West,16.1,23.0,N/A,,Clear,280,2012-12-23 10:54:00
6:54 AM,27.0,14.0,58,29.79,10.0,West,19.6,31.1,N/A,,Clear,280,2012-12-23 11:54:00
7:54 AM,27.0,14.0,58,29.83,10.0,West,12.7,-,N/A,,Clear,270,2012-12-23 12:54:00
8:54 AM,28.9,15.1,56,29.84,10.0,West,17.3,23.0,N/A,,Clear,270,2012-12-23 13:54:00
9:54 AM,30.9,15.1,52,29.85,10.0,West,17.3,-,N/A,,Clear,270,2012-12-23 14:54:00
10:54 AM,32.0,16.0,52,29.85,10.0,West,16.1,27.6,N/A,,Scattered Clouds,260,2012-12-23 15:54:00
11:54 AM,32.0,18.0,56,29.82,10.0,WSW,16.1,25.3,N/A,,Overcast,250,2012-12-23 16:54:00
12:54 PM,32.0,19.4,60,29.77,10.0,WSW,13.8,21.9,N/A,,Scattered Clouds,250,2012-12-23 17:54:00
1:54 PM,34.0,21.0,59,29.80,10.0,WSW,12.7,-,N/A,,Mostly Cloudy,250,2012-12-23 18:54:00
2:54 PM,34.0,19.9,56,29.80,10.0,West,13.8,-,N/A,,Mostly Cloudy,270,2012-12-23 19:54:00
3:54 PM,34.0,21.0,59,29.80,10.0,WSW,9.2,-,N/A,,Overcast,250,2012-12-23 20:54:00
4:54 PM,32.0,19.9,61,29.81,10.0,WSW,8.1,-,N/A,,Clear,250,2012-12-23 21:54:00
5:54 PM,32.0,21.0,64,29.82,10.0,SW,8.1,-,N/A,,Overcast,230,2012-12-23 22:54:00
6:54 PM,32.0,21.0,64,29.83,10.0,WSW,9.2,-,N/A,,Overcast,240,2012-12-23 23:54:00
7:54 PM,32.0,21.0,64,29.83,10.0,WSW,10.4,-,N/A,,Overcast,240,2012-12-24 00:54:00
8:54 PM,32.0,19.9,61,29.83,10.0,WSW,16.1,23.0,N/A,,Clear,250,2012-12-24 01:54:00
9:54 PM,30.9,19.9,64,29.84,10.0,WSW,16.1,23.0,N/A,,Clear,250,2012-12-24 02:54:00
10:54 PM,30.9,18.0,59,29.85,10.0,West,13.8,-,N/A,,Clear,260,2012-12-24 03:54:00
11:54 PM,30.9,17.1,57,29.86,10.0,WSW,13.8,-,N/A,,Clear,250,2012-12-24 04:54:00